Zurück zum Katalog

BREEZE-M R/B

AktivHEO
NORAD 39494·ROCKET BODY·🇷🇺 Russia

Gestartet Dec 8, 2013 von Baikonur Cosmodrome

Loading…

Nächste Überflüge (nächste 24 Stunden)

TLE

AktuellSource: Space-Track

Epoche: Sep 12, 2026, 15:52 UTC

1 39494U 13073C   26255.66143240 -.00000393  00000-0  00000-0 0  9995
2 39494  24.6356 178.0249 7400982 176.5792 195.3843  1.09861927 50231

Verfolge BREEZE-M R/B in Echtzeit mit AllMySat

Download on the App Store